sat.trackr.live / text

‹ back to catalog

HULIANWANG DIGUI-128

NORAD 67236 · 2025-311A

PAYLOAD ACTIVE UNKNOWN

§ Identity

Operator
Country
PRC
Launch date
2025-12-25
Launch site
WSC
Launch vehicle
Mass (kg)
RCS (m²)

External: N2YO · Heavens-Above · Gunter

§ Orbital elements

Epoch: 2026-09-19T21:54:48.902400Z

Period
108.33 min
Inclination
50.0074°
Eccentricity
0.0000213
Mean motion
13.29327366 rev/d
Perigee alt
1,149.1 km
Apogee alt
1,149.5 km
Semi-major
7,527.4 km
B*
3.9700e-5
RAAN
135.8443°
Arg perigee
339.3841°
Mean anomaly
20.7023°
Rev number
3,594

§ Raw data

HULIANWANG DIGUI-1281 67236U 25311A   26262.91306600 -.00000106  00000+0  39700-4 0  99992 67236  50.0074 135.8443 0000213 339.3841  20.7023 13.29327366 35944

JSON: /api/v1/satellites/67236 · /tle

For live sub-satellite position, see the globe view (requires WebGL).

§ Visibility from observer

Set your observer location to see the next 7 days of passes ≥ 10°. The values pass through the URL so the page stays shareable.

No JS? Fill the form by hand. The geolocation button needs JavaScript.